QPF
0.03 0.03 0.03 0.03 0.03 0.02 0.02 0.02 0.02 0.01 0.01 0.01 0.00 0.00 0.01 0.01 0.01 0.01 0.01 0.01 0.01 0.00 0.00 0.00 0.00 0.00 0.00 0.00 0.00 0.00 0.01 0.01 0.01 0.01 0.01 0.00 0.01 0.01 0.01 0.01 0.00 0.01 0.01
0.03 0.03 0.03 0.03 0.02 0.02 0.01 0.01 0.01 0.00 0.00 0.00 0.00 0.00 0.00 0.00 0.00 0.00 0.00 0.00 0.00 0.00 0.00 0.00 0.00 0.00 0.00 0.01 0.01 0.01 0.01 0.02 0.02 0.01 0.01 0.01 0.01 0.01 0.03 0.03 0.01 0.01 0.01
0.02 0.01 0.01 0.02 0.01 0.01 0.01 0.01 0.00 0.00 0.00 0.00 0.00 0.00 0.00 0.00 0.00 0.00 0.00 0.00 0.00 0.00 0.00 0.00 0.00 0.00 0.01 0.01 0.01 0.02 0.02 0.02 0.03 0.03 0.02 0.03 0.02 0.02 0.04 0.03 0.02 0.04 0.01
0.01 0.01 0.01 0.02 0.01 0.01 0.01 0.01 0.01 0.00 0.00 0.00 0.00 0.00 0.00 0.00 0.00 0.00 0.00 0.00 0.00 0.00 0.00 0.00 0.00 0.01 0.01 0.01 0.01 0.02 0.02 0.03 0.04 0.04 0.04 0.04 0.04 0.04 0.05 0.05 0.04 0.04 0.03
0.01 0.01 0.01 0.01 0.01 0.01 0.01 0.01 0.00 0.00 0.00 0.00 0.00 0.00 0.00 0.00 0.00 0.00 0.00 0.00 0.00 0.01 0.01 0.01 0.01 0.00 0.00 0.00 0.00 0.00 0.01 0.02 0.03 0.04 0.04 0.04 0.04 0.05 0.06 0.05 0.04 0.03 0.03
0.01 0.01 0.01 0.01 0.01 0.01 0.01 0.01 0.01 0.01 0.01 0.01 0.00 0.00 0.00 0.00 0.00 0.00 0.00 0.00 0.01 0.01 0.01 0.01 0.01 0.00 0.00 0.01 0.00 0.00 0.00 0.01 0.02 0.02 0.03 0.04 0.05 0.06 0.07 0.06 0.06 0.05 0.04
0.02 0.02 0.01 0.01 0.01 0.01 0.01 0.01 0.01 0.01 0.01 0.02 0.01 0.01 0.01 0.00 0.00 0.00 0.00 0.00 0.01 0.02 0.02 0.02 0.02 0.01 0.02 0.02 0.01 0.01 0.03 0.02 0.01 0.01 0.03 0.05 0.05 0.06 0.06 0.04 0.05 0.05 0.05
0.02 0.01 0.01 0.01 0.01 0.01 0.01 0.01 0.01 0.01 0.02 0.02 0.01 0.01 0.02 0.01 0.00 0.00 0.00 0.00 0.01 0.02 0.02 0.02 0.03 0.04 0.02 0.00 0.00 0.01 0.06 0.08 0.05 0.03 0.05 0.04 0.03 0.03 0.02 0.02 0.03 0.04 0.04
0.01 0.01 0.00 0.00 0.01 0.01 0.01 0.01 0.01 0.02 0.02 0.02 0.01 0.01 0.02 0.01 0.00 0.00 0.00 0.00 0.02 0.02 0.02 0.02 0.01 0.02 0.01 0.00 0.00 0.02 0.05 0.07 0.04 0.01 0.01 0.01 0.00 0.00 0.00 0.01 0.03 0.06 0.06
0.01 0.01 0.00 0.00 0.01 0.01 0.02 0.02 0.02 0.02 0.02 0.01 0.01 0.01 0.02 0.01 0.00 0.00 0.00 0.00 0.01 0.02 0.04 0.05 0.02 0.00 0.00 0.00 0.00 0.01 0.04 0.04 0.03 0.04 0.05 0.06 0.07 0.06 0.02 0.02 0.04 0.06 0.06
0.00 0.00 0.00 0.00 0.00 0.01 0.01 0.02 0.02 0.02 0.02 0.02 0.03 0.03 0.02 0.00 0.00 0.00 0.00 0.00 0.00 0.01 0.04 0.05 0.04 0.00 0.00 0.00 0.00 0.01 0.01 0.00 0.01 0.06 0.09 0.10 0.11 0.11 0.09 0.07 0.08 0.08 0.07
0.00 0.00 0.00 0.00 0.00 0.00 0.02 0.03 0.02 0.02 0.03 0.03 0.03 0.03 0.02 0.01 0.00 0.00 0.00 0.00 0.00 0.01 0.04 0.03 0.02 0.00 0.00 0.00 0.00 0.00 0.00 0.01 0.05 0.10 0.10 0.10 0.09 0.09 0.08 0.07 0.07 0.08 0.07
0.01 0.01 0.01 0.00 0.00 0.00 0.01 0.02 0.02 0.02 0.02 0.01 0.02 0.01 0.02 0.02 0.02 0.00 0.00 0.00 0.00 0.01 0.03 0.01 0.00 0.00 0.00 0.02 0.01 0.00 0.01 0.06 0.10 0.10 0.10 0.10 0.09 0.08 0.07 0.07 0.07 0.08 0.07
0.02 0.01 0.01 0.02 0.02 0.01 0.02 0.00 0.01 0.01 0.01 0.01 0.02 0.02 0.03 0.03 0.01 0.00 0.00 0.01 0.00 0.01 0.02 0.03 0.02 0.02 0.02 0.04 0.05 0.07 0.08 0.09 0.07 0.10 0.10 0.10 0.08 0.08 0.07 0.07 0.07 0.07 0.06
0.01 0.01 0.01 0.01 0.01 0.03 0.03 0.01 0.00 0.00 0.00 0.00 0.01 0.01 0.01 0.01 0.00 0.00 0.00 0.00 0.00 0.00 0.00 0.04 0.10 0.09 0.08 0.08 0.09 0.10 0.10 0.09 0.09 0.10 0.11 0.10 0.09 0.09 0.08 0.06 0.06 0.07 0.07
0.01 0.01 0.00 0.00 0.00 0.01 0.03 0.02 0.00 0.00 0.00 0.00 0.00 0.00 0.00 0.00 0.00 0.00 0.00 0.00 0.00 0.00 0.01 0.07 0.09 0.07 0.06 0.05 0.05 0.06 0.06 0.07 0.07 0.08 0.10 0.10 0.10 0.09 0.07 0.07 0.06 0.07 0.07
0.00 0.00 0.00 0.00 0.00 0.00 0.01 0.04 0.04 0.02 0.00 0.00 0.00 0.00 0.00 0.00 0.00 0.00 0.00 0.00 0.00 0.00 0.03 0.07 0.07 0.05 0.04 0.03 0.03 0.04 0.05 0.06 0.06 0.07 0.07 0.07 0.06 0.07 0.07 0.06 0.05 0.06 0.06
0.00 0.00 0.00 0.00 0.00 0.00 0.01 0.01 0.02 0.03 0.03 0.02 0.00 0.00 0.00 0.00 0.00 0.00 0.00 0.01 0.03 0.03 0.04 0.03 0.03 0.03 0.03 0.02 0.02 0.02 0.03 0.04 0.04 0.04 0.04 0.04 0.04 0.06 0.06 0.05 0.04 0.04 0.05
0.00 0.00 0.00 0.00 0.00 0.00 0.00 0.01 0.01 0.01 0.02 0.03 0.03 0.01 0.00 0.00 0.00 0.00 0.01 0.03 0.04 0.02 0.02 0.01 0.01 0.01 0.01 0.01 0.01 0.01 0.02 0.02 0.02 0.03 0.03 0.03 0.03 0.04 0.04 0.03 0.03 0.02 0.03
0.00 0.00 0.00 0.00 0.00 0.00 0.00 0.00 0.01 0.02 0.02 0.02 0.02 0.02 0.02 0.04 0.07 0.06 0.04 0.03 0.02 0.01 0.01 0.01 0.01 0.01 0.01 0.01 0.01 0.00 0.01 0.01 0.01 0.01 0.02 0.03 0.03 0.03 0.03 0.02 0.02 0.03 0.04
0.00 0.00 0.00 0.00 0.00 0.00 0.00 0.00 0.00 0.01 0.01 0.02 0.01 0.00 0.00 0.03 0.06 0.05 0.02 0.01 0.01 0.00 0.00 0.00 0.00 0.00 0.00 0.00 0.00 0.00 0.00 0.00 0.00 0.00 0.01 0.03 0.02 0.02 0.02 0.01 0.01 0.01 0.01
0.00 0.00 0.00 0.00 0.00 0.00 0.00 0.00 0.00 0.00 0.01 0.02 0.02 0.01 0.01 0.03 0.05 0.03 0.01 0.01 0.00 0.00 0.00 0.00 0.00 0.00 0.00 0.00 0.00 0.00 0.00 0.00 0.00 0.00 0.01 0.02 0.02 0.02 0.01 0.00 0.00 0.00 0.00
0.00 0.00 0.00 0.00 0.00 0.00 0.00 0.00 0.01 0.00 0.00 0.01 0.01 0.02 0.03 0.04 0.04 0.03 0.02 0.01 0.00 0.00 0.00 0.00 0.00 0.00 0.00 0.00 0.00 0.00 0.00 0.00 0.00 0.00 0.00 0.01 0.01 0.02 0.01 0.00 0.00 0.00 0.00
0.00 0.00 0.00 0.00 0.00 0.00 0.00 0.00 0.00 0.00 0.00 0.01 0.01 0.01 0.02 0.03 0.02 0.01 0.01 0.00 0.00 0.00 0.00 0.00 0.00 0.00 0.00 0.00 0.00 0.00 0.00 0.00 0.00 0.00 0.00 0.01 0.01 0.01 0.00 0.00 0.00 0.00 0.00
0.00 0.00 0.00 0.00 0.00 0.00 0.00 0.00 0.00 0.00 0.00 0.00 0.00 0.01 0.02 0.02 0.02 0.01 0.00 0.00 0.00 0.00 0.00 0.00 0.00 0.00 0.00 0.00 0.00 0.00 0.00 0.00 0.00 0.00 0.00 0.00 0.01 0.00 0.00 0.00 0.00 0.00 0.00
0.00 0.00 0.00 0.00 0.00 0.00 0.00 0.00 0.00 0.00 0.00 0.00 0.00 0.01 0.01 0.01 0.01 0.00 0.00 0.00 0.00 0.00 0.00 0.00 0.00 0.00 0.00 0.00 0.00 0.00 0.00 0.00 0.00 0.00 0.00 0.00 0.00 0.00 0.00 0.00 0.00 0.00 0.00
MSLP
1022.08 1022.24 1022.41 1022.59 1022.76 1022.93 1023.09 1023.23 1023.35 1023.46 1023.55 1023.62 1023.67 1023.71 1023.73 1023.72 1023.68 1023.61 1023.53 1023.42 1023.31 1023.21 1023.11 1023.03 1022.95 1022.87 1022.78 1022.65 1022.47 1022.23 1021.94 1021.59 1021.21 1020.82 1020.42 1020.05 1019.71 1019.40 1019.13 1018.88 1018.65 1018.42 1018.19
1022.64 1022.75 1022.86 1022.97 1023.08 1023.19 1023.29 1023.39 1023.49 1023.58 1023.67 1023.74 1023.81 1023.87 1023.91 1023.92 1023.90 1023.85 1023.76 1023.65 1023.52 1023.38 1023.26 1023.14 1023.05 1022.96 1022.87 1022.77 1022.64 1022.46 1022.23 1021.94 1021.60 1021.23 1020.83 1020.42 1020.01 1019.62 1019.24 1018.88 1018.53 1018.18 1017.85
1022.93 1023.02 1023.09 1023.17 1023.26 1023.34 1023.44 1023.53 1023.63 1023.73 1023.84 1023.94 1024.04 1024.12 1024.18 1024.21 1024.20 1024.15 1024.05 1023.91 1023.75 1023.57 1023.40 1023.24 1023.11 1023.01 1022.92 1022.84 1022.75 1022.62 1022.45 1022.22 1021.93 1021.59 1021.19 1020.77 1020.32 1019.86 1019.40 1018.94 1018.49 1018.05 1017.63
1023.06 1023.14 1023.21 1023.29 1023.38 1023.47 1023.58 1023.70 1023.82 1023.95 1024.09 1024.23 1024.35 1024.46 1024.54 1024.58 1024.57 1024.51 1024.39 1024.22 1024.01 1023.79 1023.56 1023.36 1023.19 1023.06 1022.96 1022.89 1022.81 1022.72 1022.59 1022.40 1022.15 1021.84 1021.45 1021.02 1020.54 1020.04 1019.53 1019.01 1018.50 1018.00 1017.51
1023.12 1023.21 1023.31 1023.40 1023.51 1023.63 1023.76 1023.91 1024.07 1024.23 1024.40 1024.57 1024.72 1024.85 1024.94 1024.98 1024.97 1024.89 1024.74 1024.54 1024.30 1024.03 1023.76 1023.51 1023.30 1023.13 1023.01 1022.92 1022.84 1022.76 1022.64 1022.47 1022.24 1021.93 1021.56 1021.12 1020.64 1020.12 1019.58 1019.04 1018.50 1017.97 1017.46
1023.21 1023.32 1023.43 1023.55 1023.67 1023.82 1023.98 1024.15 1024.33 1024.52 1024.71 1024.89 1025.05 1025.19 1025.29 1025.33 1025.31 1025.22 1025.06 1024.83 1024.56 1024.26 1023.95 1023.67 1023.42 1023.21 1023.05 1022.93 1022.83 1022.72 1022.59 1022.41 1022.17 1021.86 1021.48 1021.04 1020.56 1020.04 1019.51 1018.98 1018.45 1017.93 1017.43
1023.36 1023.49 1023.62 1023.75 1023.89 1024.04 1024.20 1024.38 1024.56 1024.75 1024.94 1025.12 1025.29 1025.42 1025.51 1025.55 1025.52 1025.43 1025.26 1025.03 1024.75 1024.44 1024.12 1023.81 1023.53 1023.29 1023.08 1022.92 1022.76 1022.61 1022.43 1022.21 1021.94 1021.61 1021.22 1020.78 1020.30 1019.81 1019.31 1018.81 1018.32 1017.85 1017.38
1023.60 1023.73 1023.86 1023.99 1024.12 1024.26 1024.40 1024.56 1024.73 1024.90 1025.07 1025.23 1025.38 1025.50 1025.58 1025.61 1025.59 1025.49 1025.34 1025.11 1024.84 1024.54 1024.22 1023.90 1023.60 1023.33 1023.08 1022.86 1022.64 1022.42 1022.18 1021.91 1021.58 1021.22 1020.80 1020.36 1019.90 1019.44 1018.98 1018.54 1018.11 1017.69 1017.28
1023.89 1024.02 1024.13 1024.24 1024.35 1024.45 1024.57 1024.69 1024.82 1024.95 1025.09 1025.22 1025.35 1025.45 1025.52 1025.55 1025.52 1025.44 1025.30 1025.10 1024.85 1024.56 1024.26 1023.94 1023.62 1023.31 1023.02 1022.74 1022.46 1022.17 1021.85 1021.51 1021.14 1020.73 1020.30 1019.85 1019.41 1018.98 1018.57 1018.19 1017.83 1017.48 1017.14
1024.20 1024.31 1024.40 1024.48 1024.55 1024.62 1024.69 1024.77 1024.86 1024.95 1025.06 1025.16 1025.26 1025.35 1025.41 1025.43 1025.41 1025.35 1025.22 1025.04 1024.82 1024.55 1024.25 1023.92 1023.59 1023.25 1022.91 1022.57 1022.22 1021.86 1021.48 1021.07 1020.65 1020.20 1019.75 1019.31 1018.88 1018.49 1018.12 1017.80 1017.50 1017.22 1016.93
1024.48 1024.57 1024.64 1024.69 1024.73 1024.76 1024.80 1024.84 1024.90 1024.97 1025.05 1025.13 1025.22 1025.29 1025.35 1025.37 1025.35 1025.29 1025.18 1025.01 1024.79 1024.52 1024.21 1023.88 1023.52 1023.15 1022.76 1022.36 1021.95 1021.52 1021.08 1020.62 1020.16 1019.69 1019.23 1018.79 1018.38 1018.01 1017.69 1017.40 1017.15 1016.91 1016.68
1024.70 1024.78 1024.83 1024.86 1024.88 1024.89 1024.91 1024.94 1024.99 1025.05 1025.13 1025.21 1025.29 1025.36 1025.42 1025.43 1025.41 1025.34 1025.22 1025.04 1024.80 1024.52 1024.19 1023.82 1023.42 1023.00 1022.56 1022.11 1021.64 1021.17 1020.69 1020.20 1019.71 1019.23 1018.77 1018.34 1017.95 1017.59 1017.29 1017.02 1016.79 1016.58 1016.37
1024.83 1024.91 1024.95 1024.98 1024.99 1025.01 1025.04 1025.08 1025.15 1025.22 1025.32 1025.41 1025.51 1025.59 1025.64 1025.65 1025.61 1025.52 1025.36 1025.15 1024.87 1024.54 1024.16 1023.74 1023.29 1022.82 1022.33 1021.84 1021.34 1020.83 1020.33 1019.83 1019.33 1018.86 1018.40 1017.98 1017.59 1017.25 1016.94 1016.68 1016.44 1016.23 1016.03
1024.88 1024.95 1025.00 1025.04 1025.07 1025.11 1025.17 1025.25 1025.35 1025.46 1025.59 1025.71 1025.83 1025.92 1025.97 1025.96 1025.90 1025.77 1025.56 1025.29 1024.95 1024.56 1024.12 1023.64 1023.14 1022.62 1022.09 1021.56 1021.04 1020.53 1020.02 1019.53 1019.05 1018.58 1018.14 1017.72 1017.34 1016.99 1016.67 1016.38 1016.12 1015.88 1015.66
1024.83 1024.91 1024.97 1025.03 1025.09 1025.16 1025.26 1025.39 1025.53 1025.70 1025.87 1026.03 1026.17 1026.27 1026.31 1026.29 1026.19 1026.01 1025.75 1025.41 1025.00 1024.54 1024.03 1023.50 1022.95 1022.39 1021.85 1021.31 1020.79 1020.29 1019.80 1019.33 1018.87 1018.43 1018.00 1017.58 1017.19 1016.81 1016.46 1016.13 1015.83 1015.55 1015.30
1024.68 1024.76 1024.84 1024.91 1025.01 1025.12 1025.26 1025.44 1025.63 1025.84 1026.06 1026.25 1026.42 1026.52 1026.56 1026.51 1026.37 1026.14 1025.83 1025.43 1024.96 1024.44 1023.89 1023.31 1022.74 1022.18 1021.63 1021.12 1020.62 1020.15 1019.70 1019.27 1018.84 1018.41 1017.99 1017.57 1017.15 1016.74 1016.34 1015.96 1015.60 1015.27 1014.97
1024.45 1024.53 1024.61 1024.70 1024.82 1024.96 1025.14 1025.35 1025.59 1025.84 1026.09 1026.31 1026.48 1026.59 1026.61 1026.55 1026.38 1026.11 1025.75 1025.31 1024.81 1024.26 1023.69 1023.11 1022.55 1022.01 1021.50 1021.03 1020.58 1020.16 1019.75 1019.36 1018.95 1018.54 1018.12 1017.68 1017.23 1016.77 1016.32 1015.88 1015.46 1015.07 1014.72
1024.16 1024.23 1024.30 1024.40 1024.52 1024.68 1024.89 1025.12 1025.39 1025.66 1025.93 1026.16 1026.34 1026.45 1026.46 1026.38 1026.19 1025.90 1025.53 1025.07 1024.57 1024.03 1023.48 1022.94 1022.43 1021.94 1021.50 1021.09 1020.71 1020.34 1019.98 1019.62 1019.23 1018.82 1018.38 1017.91 1017.42 1016.91 1016.39 1015.89 1015.41 1014.97 1014.58
1023.82 1023.87 1023.94 1024.03 1024.15 1024.32 1024.53 1024.78 1025.06 1025.34 1025.62 1025.85 1026.03 1026.14 1026.15 1026.06 1025.86 1025.58 1025.21 1024.78 1024.31 1023.82 1023.33 1022.86 1022.42 1022.02 1021.66 1021.33 1021.02 1020.71 1020.39 1020.04 1019.66 1019.24 1018.76 1018.25 1017.70 1017.14 1016.56 1016.00 1015.47 1014.98 1014.55
1023.48 1023.51 1023.55 1023.63 1023.75 1023.92 1024.14 1024.39 1024.67 1024.96 1025.23 1025.47 1025.65 1025.75 1025.76 1025.67 1025.49 1025.23 1024.90 1024.51 1024.10 1023.69 1023.29 1022.92 1022.58 1022.28 1022.01 1021.76 1021.51 1021.25 1020.95 1020.61 1020.21 1019.75 1019.23 1018.66 1018.06 1017.43 1016.81 1016.20 1015.62 1015.10 1014.64
1023.17 1023.17 1023.20 1023.27 1023.39 1023.56 1023.78 1024.03 1024.31 1024.60 1024.88 1025.11 1025.29 1025.39 1025.41 1025.34 1025.18 1024.95 1024.67 1024.35 1024.03 1023.71 1023.41 1023.14 1022.91 1022.71 1022.53 1022.35 1022.14 1021.91 1021.61 1021.25 1020.82 1020.31 1019.73 1019.10 1018.44 1017.76 1017.09 1016.45 1015.85 1015.31 1014.83
1022.91 1022.90 1022.92 1022.99 1023.11 1023.29 1023.51 1023.78 1024.07 1024.36 1024.63 1024.87 1025.05 1025.15 1025.18 1025.13 1025.00 1024.82 1024.59 1024.35 1024.11 1023.88 1023.68 1023.52 1023.39 1023.27 1023.16 1023.02 1022.85 1022.62 1022.30 1021.91 1021.42 1020.85 1020.21 1019.52 1018.80 1018.08 1017.38 1016.72 1016.11 1015.56 1015.08
1022.73 1022.72 1022.74 1022.82 1022.95 1023.14 1023.38 1023.66 1023.96 1024.26 1024.54 1024.78 1024.96 1025.07 1025.11 1025.07 1024.97 1024.83 1024.66 1024.48 1024.32 1024.18 1024.07 1023.99 1023.93 1023.88 1023.82 1023.71 1023.54 1023.29 1022.95 1022.50 1021.95 1021.32 1020.62 1019.87 1019.11 1018.36 1017.64 1016.98 1016.37 1015.84 1015.38
1022.63 1022.62 1022.65 1022.75 1022.90 1023.11 1023.38 1023.67 1023.99 1024.30 1024.58 1024.82 1025.00 1025.11 1025.15 1025.13 1025.06 1024.95 1024.82 1024.70 1024.60 1024.53 1024.49 1024.47 1024.47 1024.46 1024.42 1024.32 1024.15 1023.87 1023.48 1022.98 1022.38 1021.69 1020.94 1020.15 1019.35 1018.58 1017.86 1017.21 1016.63 1016.12 1015.69
1022.58 1022.58 1022.63 1022.75 1022.93 1023.17 1023.46 1023.77 1024.10 1024.41 1024.69 1024.93 1025.10 1025.21 1025.25 1025.24 1025.18 1025.09 1025.00 1024.92 1024.87 1024.84 1024.85 1024.89 1024.92 1024.94 1024.92 1024.82 1024.62 1024.32 1023.89 1023.35 1022.70 1021.96 1021.17 1020.35 1019.54 1018.77 1018.06 1017.42 1016.87 1016.40 1016.00
1022.56 1022.58 1022.66 1022.80 1023.00 1023.26 1023.56 1023.89 1024.21 1024.53 1024.80 1025.02 1025.19 1025.28 1025.32 1025.30 1025.25 1025.19 1025.12 1025.07 1025.06 1025.08 1025.12 1025.19 1025.26 1025.29 1025.28 1025.18 1024.97 1024.65 1024.20 1023.63 1022.95 1022.19 1021.37 1020.54 1019.72 1018.95 1018.26 1017.64 1017.12 1016.68 1016.31
Thickness
5627 5624 5622 5618 5615 5612 5609 5605 5602 5600 5597 5595 5592 5589 5586 5583 5581 5578 5576 5573 5569 5565 5562 5559 5556 5552 5548 5544 5540 5536 5532 5527 5523 5520 5517 5514 5511 5507 5504 5501 5498 5497 5496
5611 5609 5606 5603 5601 5598 5595 5592 5589 5587 5585 5582 5579 5576 5574 5570 5567 5564 5562 5559 5556 5551 5547 5544 5541 5538 5532 5528 5523 5519 5515 5511 5507 5504 5502 5500 5497 5494 5492 5489 5487 5486 5484
5597 5594 5591 5588 5586 5583 5581 5579 5576 5574 5571 5569 5566 5563 5560 5556 5553 5550 5548 5546 5543 5538 5535 5531 5527 5523 5518 5512 5508 5505 5501 5498 5494 5491 5490 5488 5486 5484 5482 5479 5477 5475 5474
5583 5580 5577 5574 5572 5569 5567 5565 5563 5561 5558 5556 5553 5550 5546 5541 5538 5535 5533 5532 5529 5526 5522 5518 5514 5509 5504 5498 5495 5492 5488 5484 5482 5480 5479 5478 5476 5474 5471 5469 5468 5467 5466
5569 5566 5563 5561 5558 5556 5554 5552 5550 5549 5547 5544 5541 5538 5534 5528 5523 5519 5518 5519 5516 5514 5510 5507 5503 5498 5493 5487 5484 5479 5476 5473 5471 5470 5469 5469 5467 5464 5462 5460 5459 5459 5460
5556 5554 5551 5549 5546 5544 5541 5539 5538 5536 5534 5531 5528 5525 5521 5515 5509 5507 5505 5505 5504 5502 5499 5496 5494 5490 5485 5480 5475 5471 5468 5465 5463 5461 5460 5459 5458 5457 5455 5454 5452 5452 5453
5546 5544 5541 5539 5536 5534 5532 5529 5526 5524 5522 5520 5517 5514 5508 5502 5499 5497 5495 5494 5494 5493 5490 5487 5484 5482 5477 5472 5468 5466 5465 5463 5460 5457 5455 5454 5454 5454 5451 5450 5448 5446 5447
5536 5533 5531 5529 5526 5524 5521 5519 5517 5514 5512 5509 5507 5504 5499 5493 5490 5489 5487 5488 5488 5487 5484 5480 5477 5474 5469 5464 5463 5463 5462 5462 5461 5459 5457 5455 5454 5452 5449 5446 5445 5445 5447
5527 5525 5522 5520 5517 5515 5512 5510 5507 5505 5503 5501 5498 5495 5490 5485 5482 5481 5480 5481 5483 5481 5479 5476 5473 5470 5464 5461 5459 5460 5460 5461 5461 5459 5458 5457 5456 5454 5450 5446 5445 5444 5445
5518 5516 5513 5511 5508 5506 5503 5501 5499 5497 5495 5493 5490 5487 5483 5479 5475 5474 5472 5475 5475 5474 5474 5472 5469 5466 5463 5460 5458 5457 5458 5459 5459 5459 5459 5459 5459 5457 5455 5450 5447 5444 5443
5510 5508 5505 5503 5501 5498 5495 5493 5491 5490 5487 5485 5483 5480 5477 5473 5470 5468 5467 5467 5467 5467 5469 5469 5469 5465 5463 5461 5458 5457 5458 5457 5456 5459 5460 5461 5461 5459 5457 5454 5451 5447 5444
5503 5500 5498 5496 5495 5492 5489 5486 5484 5482 5481 5479 5477 5475 5472 5469 5466 5465 5464 5463 5461 5462 5465 5466 5466 5465 5464 5463 5462 5462 5460 5457 5459 5460 5461 5461 5461 5461 5459 5458 5455 5453 5450
5495 5493 5491 5489 5487 5484 5482 5480 5479 5477 5476 5475 5473 5471 5469 5467 5464 5461 5461 5461 5461 5461 5462 5463 5464 5465 5465 5465 5466 5463 5461 5461 5461 5461 5461 5462 5462 5462 5462 5460 5458 5456 5454
5489 5487 5486 5484 5481 5478 5475 5474 5472 5470 5468 5468 5467 5465 5464 5463 5460 5457 5456 5458 5459 5460 5459 5461 5464 5467 5467 5466 5465 5465 5465 5464 5462 5461 5462 5463 5463 5463 5463 5461 5459 5457 5455
5485 5484 5482 5480 5477 5474 5470 5465 5463 5459 5457 5457 5458 5458 5457 5457 5452 5450 5449 5452 5452 5453 5452 5458 5463 5466 5467 5466 5466 5466 5465 5464 5463 5463 5462 5463 5463 5463 5463 5462 5460 5458 5456
5481 5480 5480 5477 5475 5472 5467 5462 5455 5454 5451 5450 5449 5449 5450 5449 5449 5450 5450 5451 5453 5453 5452 5458 5461 5464 5464 5465 5464 5464 5464 5463 5463 5462 5462 5462 5462 5462 5462 5462 5461 5459 5457
5479 5477 5477 5476 5474 5471 5467 5463 5457 5451 5449 5448 5447 5447 5447 5447 5448 5449 5450 5451 5454 5456 5456 5460 5461 5461 5462 5462 5463 5462 5462 5462 5461 5461 5461 5461 5461 5461 5461 5461 5461 5460 5459
5478 5475 5473 5473 5471 5469 5467 5464 5461 5458 5454 5452 5448 5447 5447 5447 5448 5449 5450 5450 5456 5460 5460 5460 5460 5460 5460 5460 5460 5460 5459 5459 5459 5459 5459 5459 5459 5460 5460 5461 5460 5459 5459
5477 5475 5473 5472 5470 5468 5466 5464 5461 5459 5457 5455 5453 5450 5447 5448 5449 5450 5450 5451 5456 5457 5458 5457 5458 5458 5457 5457 5457 5456 5456 5456 5455 5455 5455 5456 5458 5459 5459 5461 5461 5459 5458
5476 5471 5471 5471 5470 5467 5465 5463 5460 5457 5455 5453 5452 5451 5450 5450 5450 5452 5453 5453 5454 5454 5454 5453 5455 5455 5454 5453 5453 5452 5452 5451 5450 5450 5451 5453 5456 5458 5459 5460 5460 5460 5459
5480 5475 5470 5470 5470 5467 5464 5461 5458 5456 5454 5453 5452 5449 5446 5449 5450 5451 5451 5452 5451 5451 5450 5450 5451 5451 5450 5449 5448 5448 5446 5444 5443 5444 5446 5449 5453 5456 5458 5459 5460 5460 5460
5482 5480 5476 5473 5470 5466 5462 5459 5457 5455 5454 5452 5451 5450 5447 5448 5449 5449 5449 5449 5449 5448 5448 5447 5447 5446 5444 5443 5443 5442 5439 5438 5437 5438 5440 5445 5450 5454 5457 5459 5459 5460 5460
5484 5483 5479 5475 5471 5463 5462 5460 5456 5454 5453 5451 5450 5450 5449 5448 5449 5448 5448 5448 5447 5446 5445 5445 5444 5441 5440 5438 5437 5435 5432 5430 5430 5432 5436 5441 5447 5452 5456 5458 5459 5460 5460
5489 5486 5482 5477 5472 5468 5464 5460 5457 5455 5453 5451 5450 5450 5449 5448 5448 5448 5447 5447 5446 5445 5444 5442 5441 5438 5436 5434 5433 5431 5429 5428 5430 5433 5436 5440 5447 5452 5455 5457 5459 5461 5461
5492 5489 5485 5480 5475 5470 5465 5462 5458 5456 5454 5452 5451 5451 5450 5449 5448 5448 5447 5446 5446 5444 5443 5441 5439 5435 5433 5432 5430 5429 5430 5432 5434 5435 5439 5443 5448 5452 5454 5457 5459 5461 5461
5495 5491 5487 5483 5477 5472 5468 5464 5460 5457 5455 5454 5453 5451 5451 5450 5449 5447 5446 5445 5445 5444 5442 5440 5438 5434 5431 5430 5429 5430 5432 5435 5438 5441 5443 5447 5451 5453 5454 5456 5459 5461 5462